TimeCDT,TemperatureF,Dew PointF,Humidity,Sea Level PressureIn,VisibilityMPH,Wind Direction,Wind SpeedMPH,Gust SpeedMPH,PrecipitationIn,Events,Conditions,WindDirDegrees,DateUTC
12:15 AM,66.2,62.6,88,29.65,10.0,Calm,Calm,-,N/A,,Overcast,0,2012-10-02 05:15:00
12:35 AM,66.2,62.6,88,29.65,7.0,Calm,Calm,-,N/A,,Overcast,0,2012-10-02 05:35:00
1:35 AM,66.2,62.6,88,29.67,10.0,WSW,4.6,-,N/A,,Overcast,240,2012-10-02 06:35:00
2:15 AM,64.4,62.6,94,29.68,10.0,Calm,Calm,-,N/A,,Overcast,0,2012-10-02 07:15:00
2:35 AM,64.4,62.6,94,29.67,7.0,Calm,Calm,-,N/A,,Overcast,0,2012-10-02 07:35:00
2:55 AM,64.4,62.6,94,29.68,7.0,Calm,Calm,-,N/A,,Overcast,0,2012-10-02 07:55:00
3:15 AM,64.4,60.8,88,29.68,5.0,Calm,Calm,-,N/A,,Mostly Cloudy,0,2012-10-02 08:15:00
3:35 AM,64.4,60.8,88,29.67,10.0,Calm,Calm,-,N/A,,Mostly Cloudy,0,2012-10-02 08:35:00
3:55 AM,64.4,60.8,88,29.68,7.0,Calm,Calm,-,N/A,,Overcast,0,2012-10-02 08:55:00
4:15 AM,64.4,60.8,88,29.68,10.0,Calm,Calm,-,N/A,,Overcast,0,2012-10-02 09:15:00
4:35 AM,64.4,60.8,88,29.69,7.0,Calm,Calm,-,N/A,,Overcast,0,2012-10-02 09:35:00
4:55 AM,64.4,60.8,88,29.69,10.0,Calm,Calm,-,N/A,,Overcast,0,2012-10-02 09:55:00
5:35 AM,64.4,59.0,83,29.70,10.0,SSW,5.8,-,N/A,,Overcast,210,2012-10-02 10:35:00
5:55 AM,64.4,59.0,83,29.71,10.0,SSW,4.6,-,N/A,,Overcast,200,2012-10-02 10:55:00
6:15 AM,64.4,59.0,83,29.72,10.0,SSW,4.6,-,N/A,,Overcast,210,2012-10-02 11:15:00
6:35 AM,62.6,59.0,88,29.73,10.0,SSW,4.6,-,N/A,,Overcast,210,2012-10-02 11:35:00
6:55 AM,62.6,59.0,88,29.73,10.0,SW,4.6,-,N/A,,Overcast,220,2012-10-02 11:55:00
7:15 AM,62.6,59.0,88,29.74,10.0,SSW,3.5,-,N/A,,Overcast,210,2012-10-02 12:15:00
7:35 AM,62.6,59.0,88,29.75,10.0,SW,4.6,-,N/A,Rain,Rain,220,2012-10-02 12:35:00
7:55 AM,62.6,59.0,88,29.76,10.0,SW,4.6,-,N/A,,Overcast,220,2012-10-02 12:55:00
8:15 AM,64.4,59.0,83,29.76,10.0,SW,3.5,-,N/A,,Overcast,230,2012-10-02 13:15:00
8:35 AM,64.4,59.0,83,29.77,7.0,SW,10.4,-,N/A,,Overcast,220,2012-10-02 13:35:00
8:55 AM,64.4,59.0,83,29.78,10.0,SW,6.9,-,N/A,,Overcast,220,2012-10-02 13:55:00
9:15 AM,64.4,59.0,83,29.79,10.0,SSW,5.8,-,N/A,,Overcast,200,2012-10-02 14:15:00
9:35 AM,64.4,59.0,83,29.80,10.0,SW,10.4,-,N/A,,Overcast,220,2012-10-02 14:35:00
9:55 AM,66.2,57.2,73,29.80,10.0,SW,9.2,-,N/A,,Overcast,220,2012-10-02 14:55:00
10:15 AM,68.0,59.0,73,29.81,10.0,SW,8.1,17.3,N/A,,Overcast,230,2012-10-02 15:15:00
10:35 AM,68.0,59.0,73,29.81,10.0,WSW,8.1,-,N/A,,Overcast,240,2012-10-02 15:35:00
10:55 AM,68.0,57.2,68,29.81,10.0,SW,10.4,-,N/A,,Overcast,230,2012-10-02 15:55:00
11:15 AM,68.0,57.2,68,29.81,10.0,SW,6.9,-,N/A,,Mostly Cloudy,230,2012-10-02 16:15:00
11:35 AM,68.0,57.2,68,29.81,10.0,SSW,4.6,-,N/A,,Overcast,210,2012-10-02 16:35:00
11:55 AM,64.4,59.0,83,29.82,7.0,WSW,11.5,20.7,N/A,,Overcast,240,2012-10-02 16:55:00
12:15 PM,62.6,59.0,88,29.83,3.0,WSW,8.1,-,N/A,,Overcast,240,2012-10-02 17:15:00
12:35 PM,62.6,59.0,88,29.83,1.8,WSW,9.2,-,N/A,Rain,Light Rain,240,2012-10-02 17:35:00
12:55 PM,62.6,59.0,88,29.83,2.0,SW,4.6,-,N/A,,Light Drizzle,220,2012-10-02 17:55:00
1:15 PM,62.6,59.0,88,29.83,1.8,SW,6.9,-,N/A,,Light Drizzle,220,2012-10-02 18:15:00
1:35 PM,62.6,59.0,88,29.83,2.5,SSW,4.6,-,N/A,,Overcast,210,2012-10-02 18:35:00
1:55 PM,62.6,59.0,88,29.84,5.0,West,4.6,-,N/A,Rain,Light Rain,270,2012-10-02 18:55:00
2:15 PM,62.6,59.0,88,29.84,3.0,SW,4.6,-,N/A,,Overcast,220,2012-10-02 19:15:00
2:35 PM,62.6,59.0,88,29.85,2.5,WSW,8.1,-,N/A,,Overcast,240,2012-10-02 19:35:00
3:15 PM,62.6,59.0,88,29.86,5.0,WSW,4.6,-,N/A,,Overcast,240,2012-10-02 20:15:00
3:35 PM,62.6,59.0,88,29.87,4.0,West,4.6,-,N/A,,Overcast,260,2012-10-02 20:35:00
3:55 PM,62.6,59.0,88,29.87,10.0,West,5.8,-,N/A,,Overcast,260,2012-10-02 20:55:00
4:15 PM,60.8,57.2,88,29.88,2.5,WSW,4.6,-,N/A,,Overcast,240,2012-10-02 21:15:00
4:35 PM,60.8,57.2,88,29.89,3.0,SW,3.5,-,N/A,,Overcast,230,2012-10-02 21:35:00
4:55 PM,60.8,59.0,94,29.89,4.0,SW,3.5,-,0.01,,Overcast,220,2012-10-02 21:55:00
5:15 PM,60.8,57.2,88,29.90,5.0,Calm,Calm,-,N/A,,Overcast,0,2012-10-02 22:15:00
5:35 PM,60.8,57.2,88,29.91,7.0,Calm,Calm,-,N/A,,Overcast,0,2012-10-02 22:35:00
5:55 PM,60.8,57.2,88,29.91,3.0,Calm,Calm,-,N/A,Rain,Rain,0,2012-10-02 22:55:00
6:15 PM,60.8,59.0,94,29.91,5.0,Calm,Calm,-,N/A,,Overcast,0,2012-10-02 23:15:00
6:35 PM,60.8,59.0,94,29.92,7.0,Calm,Calm,-,N/A,,Overcast,0,2012-10-02 23:35:00
6:55 PM,60.8,55.4,82,29.93,10.0,West,4.6,-,N/A,,Light Drizzle,280,2012-10-02 23:55:00
7:15 PM,60.8,55.4,82,29.94,10.0,Calm,Calm,-,N/A,,Overcast,0,2012-10-03 00:15:00
7:35 PM,60.8,55.4,82,29.95,10.0,Calm,Calm,-,N/A,,Overcast,0,2012-10-03 00:35:00
8:15 PM,60.8,55.4,82,29.96,7.0,Calm,Calm,-,N/A,,Overcast,0,2012-10-03 01:15:00
8:35 PM,60.8,57.2,88,29.97,10.0,Calm,Calm,-,N/A,,Overcast,0,2012-10-03 01:35:00
9:15 PM,60.8,57.2,88,29.99,7.0,Calm,Calm,-,N/A,,Overcast,0,2012-10-03 02:15:00
9:35 PM,60.8,57.2,88,29.99,10.0,Calm,Calm,-,N/A,,Overcast,0,2012-10-03 02:35:00
9:55 PM,60.8,57.2,88,29.99,7.0,Calm,Calm,-,N/A,,Overcast,0,2012-10-03 02:55:00
10:15 PM,60.8,57.2,88,30.00,7.0,Calm,Calm,-,N/A,,Overcast,0,2012-10-03 03:15:00
10:35 PM,60.8,57.2,88,30.00,7.0,Calm,Calm,-,N/A,,Overcast,0,2012-10-03 03:35:00
10:55 PM,60.8,57.2,88,30.00,5.0,Calm,Calm,-,N/A,,Overcast,0,2012-10-03 03:55:00
11:15 PM,59.0,57.2,94,30.01,5.0,Calm,Calm,-,N/A,,Overcast,0,2012-10-03 04:15:00
11:35 PM,59.0,55.4,88,30.01,3.0,Calm,Calm,-,N/A,,Overcast,0,2012-10-03 04:35:00
11:55 PM,59.0,55.4,88,30.02,0.8,Calm,Calm,-,N/A,,Overcast,0,2012-10-03 04:55:00